Location: Maccacari
(45.1333°N, 11.1333°E)
Time: 20:15:07
(UTC+00:00)

N. Korean satellite - Visible Passes

Search period start: 29 November 2020 00:00
Search period end: 09 December 2020 00:00
Orbit: 452 x 504 km, 97.2° (Epoch: 29 November)

Date Brightness Start Highest point End Pass type
(mag) Time Alt. Az. Time Alt. Az. Time Alt. Az.
29 Nov 6.5 05:01:19 10° N 05:04:54 68° WNW 05:08:31 10° SSW visible
30 Nov 7.3 04:35:03 10° NNE 04:38:36 54° E 04:42:11 10° S visible
30 Nov 9.5 16:46:10 10° SW 16:48:42 19° W 16:51:16 10° NW visible
01 Dec 8.9 04:09:08 10° NE 04:12:13 26° E 04:15:19 10° SSE visible
01 Dec 7.8 05:42:34 10° NNW 05:45:26 22° WNW 05:48:19 10° WSW visible
01 Dec 8.0 16:19:01 10° S 16:22:15 40° W 16:25:33 10° NNW visible
02 Dec 9.9 03:43:54 10° ENE 03:45:43 13° E 03:47:32 10° ESE visible
02 Dec 6.9 05:15:48 10° N 05:19:16 44° WNW 05:22:45 10° SW visible
03 Dec 6.6 04:49:20 10° NNE 04:53:00 85° ESE 04:56:40 10° SSW visible
03 Dec 9.8 17:01:25 10° WSW 17:03:09 13° W 17:04:54 10° WNW visible
04 Dec 8.0 04:23:11 10° NNE 04:26:37 38° E 04:30:04 10° SSE visible
04 Dec 8.2 05:57:22 10° NNW 05:59:39 16° WNW 06:01:57 10° WSW visible
04 Dec 8.9 16:33:40 10° SSW 16:36:37 27° W 16:39:37 10° NW visible
05 Dec 9.4 03:57:26 10° NE 04:00:09 19° E 04:02:51 10° SE visible
05 Dec 7.4 05:30:17 10° N 05:33:31 30° WNW 05:36:45 10° SW visible
05 Dec 7.2 16:06:47 10° S 16:10:10 59° W 16:13:38 10° NNW visible
06 Dec 6.5 05:03:38 10° N 05:07:15 63° WNW 05:10:54 10° SSW visible
07 Dec 7.2 04:37:17 10° NNE 04:40:55 59° E 04:44:33 10° S visible
07 Dec 9.6 16:48:28 10° SW 16:50:56 18° W 16:53:27 10° NW visible
08 Dec 8.7 04:11:15 10° NE 04:14:28 28° E 04:17:41 10° SSE visible
08 Dec 7.8 05:44:48 10° NNW 05:47:39 21° WNW 05:50:29 10° WSW visible
08 Dec 8.2 16:21:10 10° SSW 16:24:24 38° W 16:27:42 10° NNW visible
